Air temperature 27.0° C
Dewpoint 7.0° C

Last reported at 2014-Apr-17 14:00 UTC.
Time now 2014-Apr-17 15:37 UTC

Location: N 34°48' E 005°44'.
View on Google Maps.

See reports from other nearby stations

Tides Stations Pressure Air Temp Water Temp Dewpoint Dewpoint depression Visibility Wind Speed Wind Dir Waves Ship positions

  
sailing weather and tide predictions

BISKRA weather

date/time (UTC)wind fromknots sea level pressurealtimeterstation pressurevisibilityair tempwater tempwave heightnotes
2014-Apr-17 14:00 27.0
2014-Apr-17 13:00 190 6 5.425.0
2014-Apr-17 12:00 190 8 5.424.0
2014-Apr-17 11:00 240 8 5.422.0
2014-Apr-17 10:00 180 4 5.421.0
2014-Apr-17 09:00 180 4 20.0
2014-Apr-17 08:00 180 4 18.0
2014-Apr-17 07:00 16.0
2014-Apr-17 06:00 15.0
2014-Apr-17 05:00 150 6 15.0
2014-Apr-17 04:00 120 10 16.0
2014-Apr-17 02:00 090 10 17.0
2014-Apr-17 01:00 090 10 18.0
2014-Apr-17 00:00 120 10 21.0
2014-Apr-16 23:00 350 10 23.0
2014-Apr-16 22:00 350 12 24.0
2014-Apr-16 21:00 360 12 24.0
2014-Apr-16 20:00 010 12 26.0
2014-Apr-16 19:00 030 12 27.0
2014-Apr-16 18:00 350 20 29.0
2014-Apr-16 17:00 350 19 30.0
2014-Apr-16 16:00 340 18 31.0
2014-Apr-16 15:00 320 20 31.0
2014-Apr-16 14:00 320 19 31.0
2014-Apr-16 13:00 310 15 31.0
2014-Apr-16 12:00 270 6 30.0
2014-Apr-16 11:00 29.0
2014-Apr-16 10:00 26.0
2014-Apr-16 09:00 330 5 25.0
2014-Apr-16 08:00 320 6 23.0
2014-Apr-16 07:00 320 4 22.0
2014-Apr-16 06:00 19.0
2014-Apr-16 05:00 18.0
2014-Apr-16 04:00 17.0
2014-Apr-16 03:00 18.0
2014-Apr-16 02:00 19.0
2014-Apr-16 01:00 20.0
2014-Apr-16 00:00 20.0
2014-Apr-15 23:00 22.0
2014-Apr-15 22:00 22.0
2014-Apr-15 21:00 5.423.0
2014-Apr-15 20:00 5.424.0
2014-Apr-15 19:00 5.425.0
2014-Apr-15 18:00 5.426.0
2014-Apr-15 17:00 27.0
2014-Apr-15 16:00 27.0
2014-Apr-15 15:00 28.0